CZ-6A DEB, 61323

Orbit data source: Space-Track

CZ-6A DEB, 61323 is space debris in LEO originally from a launch on Tue, 06 Aug 2024 UTC launched from the Taiyaun Space Center, China (TSC). Debris objects in space refer to the collection of defunct objects orbiting the Earth. Examples of debris include non-operational satellites, rocket bodies, and fragments generated from explosions, collisions, or faulty payload assembly.

Loading next visibility...
Identifier
61323, 2024-140UL
Orbit
LEO
Country
Flag of CNCN / PRC
Related business
Manufacturer
SAST
Mission
Spacecraft
Bus & Motor
Unknown
Mass
Unknown
Launch date (UTC)
2024-08-06 (1 year ago)
Launch vehicle
Unknown
Launch site
Taiyaun Space Center, China (TSC)
Object type
Payload
Rocket body
Debris
Shape & HBR
Unknown shape, 0.1 m
Radar Cross Section
Small (<0.1 m²)

Expand to show TLE details & history
Last TLE update: 2 days ago

TLE from 2 days ago
0 CZ-6A DEB
1 61323U 24140UL  25312.20680015  .00012180  00000-0  25421-2 0  9999
2 61323  88.8407 287.8976 0078393 300.2333  59.1133 14.57900266 62632
Epoch: 2025-11-08T04:57Z
TLE epoch observation values (Epoch: 2025-11-08T04:57:47.532Z)
Latitude
-0.00001°
Longitude
165.80982°
Altitude
674.901 km
Speed
7.534 km/s
True Right ascension
19h 11m 35s
True Declination
0° 00' 00"
Sunlit
Object was in daylight at epoch
Visualization orbit readout
Latitude
Unknown
Longitude
Unknown
Altitude
Unknown
Speed
Unknown
Apparent Right ascension
Unknown
Apparent Declination
Unknown
Sunlit
N/A
Visualization observer readout
Local Sidereal Time
13:48:20
Azimuth
Unknown
Elevation
Unknown
Doppler factor
Unknown
Orbital elements
Apogee altitude
752.323 km
Perigee altitude
641.397 km
Semi-major axis
7,074.997 km
Eccentricity
0.00784
Inclination
88.8407°
RAAN
287.8976°
Arg. of periapsis
300.2333°
True anomaly
59.8881°
Mean anomaly
59.1133°
Eccentric anomaly
59.50031°
Mean motion
3.64715 °/min
Orbital period
98.71 mins
BSTAR
0.0025421
Loading maneuver chart data...
Computing Atmospheric mass density...
Loading historical data...
Loading historical data...
Loading historical data...
Loading historical data...
Loading historical data...
Loading historical data...
Loading historical data...

Documentation

Showing up to 5 results
|